When you browse on this site, cookies collect data to enhance your experience and personalize the content and advertising you see.
Visit our Privacy Policy to learn more. By continuing to use the site, you agree to this use of cookies and data.
  • In Portugal
  • List of Countries
  • For 7 days
  • Water Temperature
  • Satellite Maps
  • Weather Map
  • Weather Widgets
  • user-avatar
    Login

    Hourly Weather Schigrovskiy 2-y

    Today, 22 July, Monday

    Time Temperature Precipitation Wind Pressure Humidity
    00:00 +15°C° 0 mm 1 mps 745 mmHg 89%
    01:00 +15°C° 0 mm 1 mps 745 mmHg 90%
    02:00 +14°C° 0 mm 0 mps 745 mmHg 90%
    03:00 +14°C° 0 mm 0 mps 745 mmHg 90%
    04:00 +14°C° 0 mm 0 mps 745 mmHg 90%
    05:00 +15°C° 0 mm 0 mps 745 mmHg 89%
    06:00 +16°C° 0 mm 0 mps 745 mmHg 84%
    07:00 +18°C° 0 mm 0 mps 745 mmHg 79%
    08:00 +22°C° 0 mm 1 mps 745 mmHg 74%
    09:00 +23°C° 0 mm 1 mps 745 mmHg 69%
    10:00 +24°C° 0 mm 1 mps 745 mmHg 63%
    11:00 +25°C° 0 mm 1 mps 745 mmHg 58%
    12:00 +26°C° 0 mm 1 mps 744 mmHg 57%
    13:00 +26°C° 0 mm 2 mps 744 mmHg 56%
    14:00 +26°C° 0 mm 2 mps 743 mmHg 54%
    15:00 +26°C° 0.2 mm 2 mps 743 mmHg 61%
    16:00 +25°C° 0.2 mm 2 mps 743 mmHg 67%
    17:00 +25°C° 0.2 mm 2 mps 743 mmHg 74%
    18:00 +23°C° 0.9 mm 2 mps 743 mmHg 81%
    19:00 +20°C° 0.9 mm 2 mps 742 mmHg 88%
    20:00 +19°C° 0.9 mm 1 mps 742 mmHg 95%
    21:00 +18°C° 0.1 mm 2 mps 742 mmHg 95%
    22:00 +18°C° 0.1 mm 2 mps 742 mmHg 95%
    23:00 +18°C° 0.1 mm 2 mps 742 mmHg 95%

    Tomorrow, 23 July, Tuesday

    Time Temperature Precipitation Wind Pressure Humidity
    00:00 +17°C° 0.3 mm 3 mps 741 mmHg 96%
    01:00 +17°C° 0.3 mm 3 mps 741 mmHg 96%
    02:00 +17°C° 0.3 mm 3 mps 740 mmHg 97%
    03:00 +17°C° 0.2 mm 3 mps 740 mmHg 97%
    04:00 +17°C° 0.2 mm 3 mps 740 mmHg 97%
    05:00 +17°C° 0.2 mm 3 mps 740 mmHg 97%
    06:00 +18°C° 0 mm 3 mps 740 mmHg 95%
    07:00 +18°C° 0 mm 3 mps 740 mmHg 94%
    08:00 +19°C° 0 mm 2 mps 739 mmHg 93%
    09:00 +20°C° 0 mm 3 mps 740 mmHg 87%
    10:00 +21°C° 0 mm 3 mps 740 mmHg 81%
    11:00 +22°C° 0 mm 3 mps 740 mmHg 75%
    12:00 +22°C° 0 mm 3 mps 740 mmHg 75%
    13:00 +22°C° 0 mm 3 mps 739 mmHg 74%
    14:00 +22°C° 0 mm 4 mps 739 mmHg 73%
    15:00 +22°C° 0 mm 3 mps 739 mmHg 73%
    16:00 +22°C° 0 mm 3 mps 739 mmHg 73%
    17:00 +22°C° 0 mm 3 mps 739 mmHg 74%
    18:00 +21°C° 0 mm 2 mps 739 mmHg 79%
    19:00 +19°C° 0 mm 2 mps 739 mmHg 85%
    20:00 +18°C° 0 mm 2 mps 739 mmHg 91%
    21:00 +17°C° 0 mm 2 mps 739 mmHg 92%
    22:00 +17°C° 0 mm 2 mps 739 mmHg 93%
    23:00 +16°C° 0 mm 2 mps 739 mmHg 94%

    Day after tomorrow, 24 July, Wednesday

    Time Temperature Precipitation Wind Pressure Humidity
    00:00 +16°C° 0 mm 1 mps 739 mmHg 95%
    01:00 +16°C° 0 mm 1 mps 739 mmHg 95%
    02:00 +16°C° 0 mm 1 mps 739 mmHg 95%
    03:00 +16°C° 0 mm 1 mps 739 mmHg 95%
    04:00 +16°C° 0 mm 1 mps 739 mmHg 95%
    05:00 +16°C° 0 mm 1 mps 739 mmHg 94%
    06:00 +18°C° 0 mm 1 mps 740 mmHg 91%
    07:00 +19°C° 0 mm 1 mps 740 mmHg 88%
    08:00 +20°C° 0 mm 1 mps 740 mmHg 84%
    09:00 +20°C° 0.9 mm 1 mps 740 mmHg 86%
    10:00 +20°C° 0.9 mm 1 mps 740 mmHg 87%
    11:00 +20°C° 0.9 mm 1 mps 740 mmHg 89%
    12:00 +20°C° 0.5 mm 1 mps 740 mmHg 90%
    13:00 +20°C° 0.5 mm 1 mps 740 mmHg 90%
    14:00 +18°C° 0.5 mm 2 mps 740 mmHg 91%
    15:00 +18°C° 0.4 mm 2 mps 740 mmHg 92%
    16:00 +18°C° 0.4 mm 2 mps 740 mmHg 93%
    17:00 +17°C° 0.4 mm 2 mps 740 mmHg 95%
    18:00 +17°C° 0.3 mm 2 mps 740 mmHg 96%
    19:00 +17°C° 0.3 mm 2 mps 740 mmHg 97%
    20:00 +17°C° 0.3 mm 2 mps 741 mmHg 98%
    21:00 +17°C° 0.1 mm 2 mps 741 mmHg 98%
    22:00 +17°C° 0.1 mm 3 mps 741 mmHg 98%
    23:00 +17°C° 0.1 mm 3 mps 741 mmHg 98%

    25 July, Thursday

    Time Temperature Precipitation Wind Pressure Humidity
    00:00 +17°C° 0.4 mm 3 mps 741 mmHg 97%
    01:00 +17°C° 0.4 mm 4 mps 741 mmHg 96%
    02:00 +17°C° 0.4 mm 4 mps 741 mmHg 95%
    03:00 +17°C° 0.1 mm 4 mps 741 mmHg 95%
    04:00 +17°C° 0.1 mm 4 mps 741 mmHg 95%
    05:00 +17°C° 0.1 mm 3 mps 742 mmHg 95%
    06:00 +18°C° 0 mm 3 mps 742 mmHg 93%
    07:00 +19°C° 0 mm 4 mps 742 mmHg 91%
    08:00 +19°C° 0 mm 4 mps 743 mmHg 89%
    09:00 +20°C° 0.1 mm 4 mps 743 mmHg 87%
    10:00 +21°C° 0.1 mm 4 mps 743 mmHg 84%
    11:00 +21°C° 0.1 mm 4 mps 744 mmHg 82%
    12:00 +22°C° 0 mm 3 mps 744 mmHg 78%
    13:00 +22°C° 0 mm 3 mps 744 mmHg 75%
    14:00 +24°C° 0 mm 2 mps 744 mmHg 71%
    15:00 +24°C° 0.3 mm 2 mps 744 mmHg 73%
    16:00 +24°C° 0.3 mm 2 mps 744 mmHg 74%
    17:00 +25°C° 0.3 mm 2 mps 744 mmHg 76%
    18:00 +23°C° 0.6 mm 2 mps 744 mmHg 80%
    19:00 +21°C° 0.6 mm 3 mps 744 mmHg 85%
    20:00 +19°C° 0.6 mm 3 mps 744 mmHg 89%
    21:00 +19°C° 0 mm 3 mps 744 mmHg 91%
    22:00 +18°C° 0 mm 3 mps 744 mmHg 92%
    23:00 +17°C° 0 mm 3 mps 744 mmHg 93%

    26 July, Friday

    Time Temperature Precipitation Wind Pressure Humidity
    00:00 +17°C° 0 mm 3 mps 744 mmHg 94%
    01:00 +17°C° 0 mm 3 mps 744 mmHg 95%
    02:00 +16°C° 0 mm 3 mps 744 mmHg 95%
    03:00 +16°C° 0 mm 3 mps 744 mmHg 95%
    04:00 +17°C° 0 mm 3 mps 744 mmHg 95%
    05:00 +17°C° 0 mm 3 mps 744 mmHg 95%
    06:00 +18°C° 0 mm 3 mps 744 mmHg 91%
    07:00 +19°C° 0 mm 4 mps 744 mmHg 87%
    08:00 +21°C° 0 mm 4 mps 744 mmHg 83%
    09:00 +22°C° 0 mm 4 mps 744 mmHg 77%
    10:00 +23°C° 0 mm 5 mps 744 mmHg 70%
    11:00 +25°C° 0 mm 5 mps 744 mmHg 64%
    12:00 +25°C° 0.1 mm 5 mps 744 mmHg 65%
    13:00 +25°C° 0.1 mm 5 mps 743 mmHg 66%
    14:00 +25°C° 0.1 mm 5 mps 743 mmHg 67%
    15:00 +25°C° 0.1 mm 5 mps 743 mmHg 67%
    16:00 +25°C° 0.1 mm 4 mps 743 mmHg 67%
    17:00 +24°C° 0.1 mm 3 mps 743 mmHg 67%
    18:00 +21°C° 0 mm 3 mps 743 mmHg 71%
    19:00 +20°C° 0 mm 2 mps 743 mmHg 75%
    20:00 +18°C° 0 mm 2 mps 743 mmHg 80%
    21:00 +17°C° 0 mm 2 mps 743 mmHg 82%
    22:00 +17°C° 0 mm 2 mps 743 mmHg 85%
    23:00 +16°C° 0 mm 2 mps 743 mmHg 88%

    27 July, Saturday

    Time Temperature Precipitation Wind Pressure Humidity
    00:00 +16°C° 0 mm 3 mps 743 mmHg 89%
    01:00 +14°C° 0 mm 3 mps 743 mmHg 90%
    02:00 +13°C° 0 mm 3 mps 742 mmHg 91%
    03:00 +13°C° 0 mm 3 mps 742 mmHg 91%
    04:00 +13°C° 0 mm 3 mps 742 mmHg 91%
    05:00 +12°C° 0 mm 4 mps 743 mmHg 92%
    06:00 +14°C° 0 mm 4 mps 742 mmHg 86%
    07:00 +15°C° 0 mm 4 mps 742 mmHg 81%
    08:00 +17°C° 0 mm 5 mps 742 mmHg 76%
    09:00 +19°C° 0 mm 5 mps 742 mmHg 72%
    10:00 +20°C° 0 mm 5 mps 742 mmHg 67%
    11:00 +21°C° 0 mm 5 mps 742 mmHg 63%
    12:00 +22°C° 0 mm 5 mps 742 mmHg 62%
    13:00 +22°C° 0 mm 5 mps 741 mmHg 60%
    14:00 +23°C° 0 mm 5 mps 741 mmHg 59%
    15:00 +23°C° 0 mm 4 mps 741 mmHg 63%
    16:00 +22°C° 0 mm 3 mps 741 mmHg 66%
    17:00 +22°C° 0 mm 3 mps 740 mmHg 70%
    18:00 +21°C° 0 mm 2 mps 740 mmHg 72%
    19:00 +20°C° 0 mm 2 mps 740 mmHg 75%
    20:00 +19°C° 0 mm 1 mps 740 mmHg 78%
    21:00 +18°C° 0.1 mm 2 mps 739 mmHg 79%
    22:00 +18°C° 0.1 mm 2 mps 739 mmHg 80%
    23:00 +18°C° 0.1 mm 2 mps 739 mmHg 81%
    Show more